Regional Weather Roundup
Issued by NWS

Home | Current Version | Previous Version | Text Only | Print | Product List | Glossary On
Versions: 1 2 3 4 5 6 7 8 9 10 11 12 13 14 15 16 17 18 19 20 21 22 23 24 25 26 27 28 29 30 31 32 33 34 35 36 37 38 39 40 41 42 43 44 45 46 47 48 49 50
000
ASUS43 KMPX 192001
RWRMN
WEATHER ROUNDUP FOR MINNESOTA
NATIONAL WEATHER SERVICE TWIN CITIES/CHANHASSEN MN
300 PM CDT SAT APR 19 2014


NOTE: "FAIR" INDICATES FEW OR NO CLOUDS BELOW 12,000 FEET WITH NO
SIGNIFICANT WEATHER AND/OR OBSTRUCTIONS TO VISIBILITY. N/A MEANS
CURRENT SKY AND/OR WEATHER CONDITIONS ARE NOT AVAILABLE.

MNZ060>063-068>070-192100-
   Twin Cities Metro

CITY           SKY/WX    TMP DP  RH WIND       PRES   REMARKS
TWIN CITIES    PTSUNNY   66  43  43 S14G23    30.00F
ST PAUL        CLOUDY    63  42  46 S12       30.01F
CRYSTAL        CLOUDY    64  42  44 S9G18     29.99F
EDEN PRAIRIE   CLOUDY    68  44  42 S16G24    29.97F
LAKEVILLE      MOSUNNY   66  45  45 S23G31    29.99F
SOUTH ST PAUL  PTSUNNY   65  42  43 S15G26    30.00F
LAKE ELMO      CLOUDY    59  41  51 S15G22    30.02F
$$
MNZ001>005-007-008-013>017-022>024-027-028-192100-
   Northwest Minnesota

CITY           SKY/WX    TMP DP  RH WIND       PRES   REMARKS
BEMIDJI        PTSUNNY   62  31  31 SW18G24   29.87R
HALLOCK          N/A     55  41  58 W29G35    29.80R
ROSEAU         MOSUNNY   59  39  47 SW24G33   29.79R
WARROAD        SUNNY     57  39  51 SW18G33   29.79R
THIEF RVR FALL SUNNY     59  36  41 W26G32    29.84S
CROOKSTON      SUNNY     63  37  39 W17G26    29.86R
FOSSTON        PTSUNNY   63  32  31 SW21G29   29.87S
DETROIT LAKES  PTSUNNY   63  30  29 W15       29.92R
MOORHEAD       PTSUNNY   64  27  24 SW16G23   29.90S
PARK RAPIDS    MOSUNNY   64  28  25 W16G30    29.89S
$$
MNZ006-009>011-018-025>026-192100-
   North Central Minnesota

CITY           SKY/WX    TMP DP  RH WIND       PRES   REMARKS
BAUDETTE       MOSUNNY   59  36  42 W14G31    29.79S
FLAG ISLAND    PTSUNNY   52  36  54 SW23G35   29.74S
INTL FALLS     PTSUNNY   51  37  58 S9G20     29.85F
WASKISH        PTSUNNY   61  36  39 SW18      29.84S
BIG FORK       PTSUNNY   55  39  54 S14       29.88S
LONGVILLE      MOSUNNY   63  43  48 SW9G18    29.90F
GRAND RAPIDS   PTSUNNY   54  37  54 S15G24    29.93F
CRANE LAKE     PTSUNNY   43  39  87 S14G26    29.95F
ORR            PTSUNNY   48  32  53 S15G21    29.90F
COOK           CLOUDY    45  34  65 SE8G16    29.95S
$$
MNZ012-019>021-037-192100-
   Northeast Minnesota

CITY           SKY/WX    TMP DP  RH WIND       PRES   REMARKS
DULUTH         CLOUDY    37  30  75 SE10      30.01F
ELY            CLOUDY    37  30  75 S14       29.98F
HIBBING        CLOUDY    49  33  54 S14G24    29.95S
EVELETH        CLOUDY    43  32  65 S13       29.98S
DULUTH HARBOR  CLOUDY    34  30  86 CALM      30.06F
TWO HARBORS    CLOUDY    36  28  75 E6        30.01F
SILVER BAY     CLOUDY    32  32 100 NE7       30.03F WCI  26
GRAND MARAIS     N/A     35  29  78 NE15G22   30.10F WCI  25
G MARAIS ARPRT MIX PCPN  30  25  80 E9G17     30.04F WCI  22
$$
MNZ029>031-032-039>041-046>048-054>057-064-192100-
   West Central Minnesota

CITY           SKY/WX    TMP DP  RH WIND       PRES   REMARKS
FERGUS FALLS   MOSUNNY   66  25  20 W13G22    29.89S
WHEATON        MOSUNNY   72  36  26 SW12G18   29.96R
MORRIS         PTSUNNY   66  36  32 W12G17    29.95S
ALEXANDRIA     PTSUNNY   63  39  41 SW9       29.95S
ELBOW LAKE     FAIR      67  29  24 W16G24    29.94S
WADENA         MOSUNNY   63  36  36 W12G22    29.92S
GLENWOOD       CLOUDY    59  45  58 SW6       29.97S
APPLETON       CLOUDY    63  37  39 W5        29.97R
BENSON         CLOUDY    61  37  41 NW8       29.98R
ORTONVILLE     PTSUNNY   66  28  24 W9        29.96F
MADISON        CLOUDY    66  36  32 NW9       29.98S
WILLMAR        LGT RAIN  59  46  63 W7        30.00R
$$
MNZ033>034-036-042>043-049>051-058-059-192100-
   Central Minnesota

CITY           SKY/WX    TMP DP  RH WIND       PRES   REMARKS
ST CLOUD       LGT RAIN  57  44  62 S8        29.97F
SAUK CENTRE    FAIR      58  47  67 SW6       29.97S
PAYNESVILLE    DRIZZLE   56  47  70 CALM      29.97F
AITKIN         PTSUNNY   57  39  51 S18G24    29.95S
PINE RIVER     MOSUNNY   63  46  55 S13G24    29.94F
BRAINERD       PTSUNNY   65  43  44 S15G26    29.95S
STAPLES        MOSUNNY   63  43  48 SW12G17   29.93S
LONG PRAIRIE   FAIR      59  45  58 S9        29.96R
LITTLE FALLS   PTSUNNY   55  43  62 S9        29.97S
LITCHFIELD     CLOUDY    63  46  55 W6        29.98S
BUFFALO        CLOUDY    64  44  48 S3        29.99S
MAPLE LAKE     CLOUDY    63  48  57 CALM      29.99R
$$
MNZ037-044-045-052-053-192100-
   East Central Minnesota

CITY           SKY/WX    TMP DP  RH WIND       PRES   REMARKS
PRINCETON      CLOUDY    55  43  62 SE5       29.98F
MORA           LGT RAIN  45  37  76 CALM      30.02S
CAMBRIDGE      CLOUDY    55  41  58 SE5       29.99S
RUSH CITY      CLOUDY    47  37  66 SE7       30.01F
MOOSE LAKE     CLOUDY    50  32  50 S9G20     29.99S
HINCKLEY       LGT RAIN  45  37  76 SE6       30.01F
CLOQUET        CLOUDY    43  30  61 SE7       30.00F
MCGREGOR       CLOUDY    54  37  54 S20G25    29.98S
$$
MNZ071>073-080-081-089-090-097-098-192100-
   Southwest Minnesota

CITY           SKY/WX    TMP DP  RH WIND       PRES   REMARKS
MONTEVIDEO     CLOUDY    63  46  55 NW9       30.00R
GRANITE FALLS  CLOUDY    61  45  55 W13       30.01R
CANBY          CLOUDY    61  41  48 W6        30.00S
MARSHALL       CLOUDY    64  46  52 NW15      29.98R
REDWOOD FALLS  PTSUNNY   67  47  48 NW14      29.97R
OLIVIA         CLOUDY    63  46  55 NW7       29.97S
PIPESTONE      PTSUNNY   64  41  42 N8G16     29.98S
WINDOM         MOSUNNY   73  45  35 SW16G26   29.97S
WORTHINGTON    MOSUNNY   72  45  37 SW16      30.00S
JACKSON        PTSUNNY   73  43  33 SW20G30   29.99S
TRACY          PTSUNNY   70  46  41 NW16      29.97S
SLAYTON        MOSUNNY   70  43  37 W16G23    29.98S
$$
MNZ065>067-074>077-082>085-091>093-192100-
   South Central Minnesota

CITY           SKY/WX    TMP DP  RH WIND       PRES   REMARKS
MANKATO        CLOUDY    70  43  37 S20G28    29.97F
NEW ULM        PTSUNNY   72  48  43 W16G22    29.96R
ST JAMES       PTSUNNY   73  45  35 S17G26    29.97F
FAIRMONT       CLOUDY    73  45  35 SW17      30.00S
GLENCOE        CLOUDY    69  45  41 SW7       29.96S
FARIBAULT      MOSUNNY   70  37  30 SE24      30.02F
OWATONNA       MOSUNNY   68  45  42 S22G30    30.03F
WASECA         PTSUNNY   72  46  40 S22G29    30.02F
ALBERT LEA     MOSUNNY   72  43  35 S17G24    30.02F
$$
MNZ078>079-086>088-094>096-192100-
   Southeast Minnesota

CITY           SKY/WX    TMP DP  RH WIND       PRES   REMARKS
ROCHESTER      CLOUDY    63  40  42 S20G30    30.07F
RED WING       CLOUDY    63  37  39 S14       30.04F
STANTON        PTSUNNY   67  43  42 S26G33    30.00F
DODGE CENTER   PTSUNNY   64  39  39 S18       30.06S
WINONA           N/A    N/A N/A N/A MISG        N/A
AUSTIN         PTSUNNY   66  37  34 S14G22    30.06S
PRESTON        MOSUNNY   67  40  36 S20G28    30.09F
$$
ABBREVIATIONS USED IN REMARKS
   TC - TEMPERATURES IN CELSIUS
  WCI - WIND CHILL INDEX
   HX - HEAT INDEX
  VSB - VISIBILITY
$$



USA.gov is the U.S. government's official web portal to all federal, state and local government web resources and services.